Weather in Sady Pridonya

Russia / Volgograd Oblast     49°03′22″N   44°02′01″E
temp.,
°C
wind,
m/s
gust,
m/s
humid.,
%
clouds,
%
prec.,
mm/h
press.,
hPa
HPBL,
m
27 february, sat
sat2700:00+5w71696100 0.2 1012477
03:00+4wsw71494100 0.4 1011429
06:00+4w51196100 0.0 1009308
09:00+4w61193100 0.0 1009578
12:00+4w61189100 0.0 1009656
15:00+3w61187100 0.0 1009631
18:00+3w51192100 0.0 1008444
21:00+2wnw61388100 0.1 1010489
28 february, sun
sun2800:00+1wnw6128846 0.0 1011723
03:00−3nnw5107854 0.1 1013535
06:00−4nnw58750 0.0 1014523
09:00−4nnw46700 0.0 1014536
12:00−1nw56610 0.0 1015653
15:000nw46630 0.0 1015764
18:00−2nnw34736 0.0 1016118
21:00−2nnw22763 0.0 101867
1 march, mon
mon100:00−3nne128075 0.0 1019186
03:00−3sw008384 0.0 102032
06:00−3wsw008483 0.0 102121
09:00−2nne118283 0.0 1023278
12:00−1nne217488 0.0 1024533
15:00+1nnw226887 0.0 1025708
18:00−1n347690 0.0 1025133
21:00−3n237463 0.0 102789
2 march, tue
tue200:00−3wnw01737 0.0 102624
03:00−3wsw24766 0.0 1025103
06:00−3wsw498433 0.0 1024290
09:00−1wsw6107466 0.0 1022628
12:00+2wsw91363100 0.0 10191091
15:00+2wsw91468100 0.0 10151150
18:000wsw91597100 1.9 1013845
21:00+1wnw71297100 3.0 1012673
3 march, wed
wed300:000wnw6118999 0.1 1012573
03:00−2wnw5119180 0.1 1013435
06:00−2wnw5119112 0.0 1013437
09:000wnw7107949 0.0 1014983
12:00+1nw7107192 0.1 10141176
15:00+1nw7106797 0.4 10141265
18:00−1nnw6117492 0.1 1015729
21:00−2nnw7117678 0.1 10181084